ES'HAIL 2

Last updated on July 6, 2021, 3:31 p.m. UTC

1 43700U 18090A   21186.86739721  .00000153  00000-0  00000-0 0  9992
2 43700   0.0191  30.6597 0001200 104.6976 126.7619  1.00271752  9559
UTC
Height (km)
Latitude
Longitude
Inclination
Orbital Period
UTC large
Height (km)
Speed (km/s)
/
Latitude / Longitude
Inclination (degrees)
Orbital Period (minutes)
Azimuth
Elevation
Range (km)
Doppler Factor
iOS Compass Heading
iOS Angle

Next 30 passes for location: Hong Kong

Rise time Rise Azimuth (degrees) Set time Set Azimuth (degrees) Duration Max altitude (degrees)

No matching passes for this satellites